[[{"header":{"parameterUnit":"m.s-1","parameterCategory":1,"la1":30.2991,"la2":30.254,"lo1":-89.0895,"lo2":-89.0444,"dy":0.0017,"dx":0.0017,"nx":28,"ny":28,"refTime":"2025-09-16T09:00:00:Z","depth":0,"parameterNumber":2,"parameterNumberName":"U-component_of_WINDS"},"data":[0,0,0,0,0,0,0,0,0,0,0,0,0,0,0,0,0,0,0,0,0,0,0,0,0,0,0,0,0,0,0,0,0,0,0,0,0,0,0,0,0,0,0,0,0,0,0,0,0,0,0,0,0,0,0,0,0,0,1.1334,1.1334,0,1.1317,1.1317,1.1317,1.1277,1.1276,1.1275,1.1274,1.1256,1.1256,1.1257,0,0,0,0,0,0,0,0,0,0,0,0,0,1.133,1.133,1.1334,1.1334,1.1334,1.1317,1.1317,1.1317,1.1277,1.1276,1.1275,1.1274,1.1256,1.1256,1.1257,0,0,0,0,0,0,0,0,0,0,0,0,0,1.1324,1.133,1.1334,1.1312,1.131,1.1317,1.1317,1.1317,1.1277,1.1276,1.1275,1.1274,1.1256,1.1256,1.1257,1.1284,0,0,1.1258,1.1258,0,0,0,0,0,0,0,0,1.1325,1.1324,1.1316,1.1314,1.1311,1.1298,1.1309,1.1306,1.1278,1.129,1.1274,1.1273,1.1271,1.127,1.127,1.1283,1.1282,1.1258,1.1258,1.1258,1.1259,0,0,0,0,0,0,0,1.1325,1.1325,1.1328,1.1315,1.1313,1.1302,1.13,1.1308,1.1287,1.1288,1.1285,1.1284,1.1269,1.1269,1.1269,1.1282,1.1258,1.1258,1.1259,1.1259,1.1314,1.1315,0,0,0,0,0,0,1.1329,1.1326,1.1328,1.1327,1.1315,1.1303,1.1301,1.1303,1.1287,1.1284,1.1285,1.1282,1.1269,1.1268,1.1268,1.1296,1.1258,1.1259,1.1259,1.1313,1.1314,1.1316,0,0,0,0,0,0,1.1329,1.133,1.1329,1.1325,1.1325,1.1305,1.1308,1.1304,1.1303,1.1285,1.1281,1.1289,1.1268,1.1267,1.128,1.1295,1.1259,1.1259,1.1311,1.1313,1.1315,1.1355,0,0,0,0,0,0,1.1329,1.133,1.1341,1.1326,1.1325,1.1342,1.1309,1.1304,1.1304,1.13,1.1287,1.1284,1.1267,1.1279,1.128,1.1295,1.126,1.131,1.1312,1.1314,1.1352,1.1358,1.1363,0,0,0,0,0,1.1329,1.1353,1.1342,1.1342,1.1338,1.1343,1.1342,1.1323,1.1306,1.1316,1.1303,1.1284,1.1294,1.1281,1.1281,1.1297,1.1309,1.1312,1.1314,1.135,1.1357,1.1363,0,0,0,0,0,0,1.1371,1.1351,1.1338,1.1358,1.1352,1.1336,1.1348,1.1331,1.133,1.1326,1.1302,1.1299,1.1314,1.1307,1.1293,1.1321,1.1298,1.1301,1.1325,1.1331,1.1337,1.1337,1.126,0,0,0,0,0,1.1382,1.1388,1.137,1.139,1.1388,1.1369,1.137,1.1355,1.1348,1.1345,1.1334,1.1327,1.1328,1.133,1.133,1.1352,1.1347,1.1362,1.1368,1.1372,1.1374,1.1382,1.1388,1.1325,1.1325,1.1325,0,0,1.1406,1.1396,1.1401,1.1398,1.1392,1.1397,1.1367,1.1374,1.1377,1.1347,1.1356,1.1348,1.1339,1.1355,1.1362,1.1349,1.1391,1.1376,1.138,1.1379,1.1385,1.1391,1.1397,1.1326,1.1326,1.1326,0,0,1.1452,1.1446,1.146,1.1454,1.1445,1.1432,1.1435,1.1421,1.1414,1.1424,1.14,1.1403,1.1406,1.14,1.1397,1.1438,1.1419,1.1439,1.1466,1.1474,1.1479,1.1483,1.1495,1.15,1.1442,1.1442,1.1442,0,1.1482,1.149,1.147,1.1478,1.1476,1.1448,1.1461,1.1456,1.1448,1.1446,1.1433,1.1435,1.1427,1.144,1.1449,1.1449,1.1451,1.144,1.148,1.1484,1.1488,1.1499,1.1504,1.1444,1.1444,1.1444,1.1443,0,1.1526,1.1532,1.1544,1.1536,1.1536,1.1546,1.1526,1.1529,1.1514,1.1502,1.151,1.15,1.1496,1.1499,1.1485,1.1509,1.1501,1.1485,1.1461,1.1496,1.1506,1.1511,1.1447,1.1447,1.1446,1.1445,0,0,1.1597,1.1576,1.1581,1.1576,1.1563,1.1566,1.1575,1.1571,1.1572,1.1567,1.1572,1.1574,1.1558,1.1555,1.154,1.1547,1.1577,1.1529,1.1529,1.1536,1.1599,1.161,1.1615,1.1565,1.1566,1.1566,1.1599,0,1.1638,1.1651,1.1632,1.165,1.1653,1.1626,1.1633,1.1625,1.1614,1.1614,1.1601,1.1602,1.1582,1.158,1.1586,1.1572,1.1589,1.157,1.1567,1.1567,1.1568,1.1621,1.1633,1.1664,1.1603,1.1603,1.1604,0,1.1687,1.1683,1.17,1.1684,1.1684,1.1691,1.1685,1.1686,1.1676,1.1667,1.1662,1.1644,1.165,1.1628,1.1634,1.1622,1.162,1.1613,1.1613,1.1611,1.1586,1.1617,1.1674,1.1677,1.161,1.161,1.1609,0,1.1733,1.1733,1.1742,1.1739,1.172,1.1725,1.1718,1.1706,1.1704,1.1699,1.1697,1.1693,1.169,1.1686,1.1666,1.1653,1.1674,1.1651,1.1665,1.1665,1.1669,1.1668,1.1723,1.1672,1.1672,1.1672,1.1672,0,1.1779,1.179,1.1762,1.1768,1.1779,1.1756,1.1767,1.1757,1.1747,1.1749,1.1726,1.1728,1.1704,1.1703,1.1688,1.1693,1.1693,1.1684,1.168,1.1685,1.1686,1.1682,1.1678,1.1673,1.1673,1.1672,1.1672,0,1.1832,1.1814,1.1822,1.1804,1.1799,1.1808,1.1792,1.1795,1.1782,1.1785,1.1784,1.1763,1.1761,1.1741,1.1735,1.1725,1.1735,1.1728,1.1739,1.1735,1.1749,1.1747,1.1801,1.1806,1.1754,1.1754,1.1755,0,1.1861,1.1869,1.1851,1.185,1.1844,1.1844,1.1841,1.182,1.1818,1.1805,1.181,1.1806,1.1801,1.1798,1.1782,1.1776,1.1767,1.1786,1.1766,1.177,1.1764,1.1763,1.1762,1.179,1.1791,1.1791,1.1792,0,1.1914,1.1904,1.1902,1.1895,1.1893,1.1887,1.188,1.1881,1.1856,1.1855,1.1852,1.1849,1.1841,1.1836,1.1828,1.1819,1.18,1.1798,1.1801,1.1805,1.181,1.1805,1.1748,1.1797,1.1796,1.1796,1.1796,1.1795,1.1954,1.1958,1.1945,1.1943,1.1935,1.1928,1.193,1.1916,1.1914,1.1905,1.1893,1.1891,1.1878,1.1865,1.1857,1.1855,1.1844,1.1848,1.1849,1.185,1.1851,1.1812,1.1853,1.1853,1.1853,1.1853,1.1853,0,1.2003,1.1993,1.1991,1.1981,1.1978,1.1962,1.1952,1.1951,1.1949,1.1939,1.1935,1.193,1.1925,1.1908,1.19,1.1902,1.1893,1.19,1.1899,1.1896,1.1863,1.186,1.1907,1.1907,1.1907,1.1907,1.1907,1.1907,1.2028,1.2033,1.2022,1.2022,1.2013,1.201,1.2006,1.1999,1.199,1.1986,1.1982,1.1971,1.1957,1.1948,1.1942,1.1937,1.1934,1.1944,1.1936,1.1904,1.1899,1.1894,1.1891,1.1944,1.1944,1.197,1.197,1.197]},{"header":{"parameterUnit":"m.s-1","parameterCategory":1,"la1":30.2991,"la2":30.254,"lo1":-89.0895,"lo2":-89.0444,"dy":0.0017,"dx":0.0017,"nx":28,"ny":28,"refTime":"2025-09-16T09:00:00:Z","depth":0,"parameterNumber":3,"parameterNumberName":"V-component_of_WINDS"},"data":[0,0,0,0,0,0,0,0,0,0,0,0,0,0,0,0,0,0,0,0,0,0,0,0,0,0,0,0,0,0,0,0,0,0,0,0,0,0,0,0,0,0,0,0,0,0,0,0,0,0,0,0,0,0,0,0,0,0,1.5021,1.5022,0,1.5084,1.5084,1.5085,1.5074,1.5073,1.5071,1.507,1.5133,1.5136,1.5138,0,0,0,0,0,0,0,0,0,0,0,0,0,1.4889,1.4892,1.5021,1.5022,1.5023,1.5083,1.5084,1.5085,1.5074,1.5073,1.5071,1.507,1.5132,1.5135,1.5138,0,0,0,0,0,0,0,0,0,0,0,0,0,1.4949,1.4893,1.5021,1.5024,1.5025,1.5083,1.5084,1.5085,1.5074,1.5072,1.5071,1.5069,1.5131,1.5135,1.5139,1.5197,0,0,1.5151,1.5153,0,0,0,0,0,0,0,0,1.4945,1.4954,1.5023,1.5024,1.5025,1.5069,1.5061,1.5123,1.5075,1.5056,1.507,1.5068,1.5113,1.5118,1.5134,1.52,1.5203,1.5152,1.5154,1.5156,1.5157,0,0,0,0,0,0,0,1.4941,1.4951,1.5046,1.5024,1.5026,1.5022,1.5028,1.5072,1.5093,1.5057,1.5056,1.5064,1.5113,1.513,1.5135,1.5204,1.5152,1.5155,1.5158,1.5159,1.5317,1.5319,0,0,0,0,0,0,1.4936,1.4947,1.5044,1.5048,1.4981,1.5026,1.5033,1.5057,1.5092,1.5096,1.5065,1.5063,1.5124,1.513,1.5137,1.5206,1.5156,1.516,1.5162,1.5316,1.5318,1.532,0,0,0,0,0,0,1.4934,1.4945,1.5041,1.4997,1.5009,1.503,1.5056,1.5059,1.5075,1.5099,1.5102,1.5079,1.5123,1.5132,1.5182,1.5208,1.5161,1.5165,1.5314,1.5316,1.5319,1.5344,0,0,0,0,0,0,1.493,1.4944,1.4967,1.4998,1.5012,1.5086,1.5058,1.5061,1.5083,1.508,1.5112,1.5116,1.5122,1.5176,1.5186,1.5212,1.5168,1.5311,1.5315,1.5318,1.5341,1.5347,1.5353,0,0,0,0,0,1.4925,1.4972,1.4969,1.498,1.5041,1.5087,1.5095,1.5102,1.5085,1.5108,1.5122,1.5115,1.5203,1.5181,1.5192,1.5221,1.531,1.5314,1.5318,1.5339,1.5346,1.5353,0,0,0,0,0,0,1.4945,1.4977,1.4973,1.5032,1.5057,1.5085,1.5115,1.511,1.5141,1.5138,1.5144,1.5151,1.5202,1.5216,1.5191,1.5277,1.5254,1.526,1.5266,1.5273,1.5279,1.5274,1.5172,0,0,0,0,0,1.4956,1.4991,1.5017,1.5066,1.5079,1.5094,1.5115,1.5118,1.5144,1.5155,1.5173,1.5198,1.5231,1.5253,1.5285,1.5343,1.5349,1.5368,1.5374,1.5378,1.5384,1.5413,1.5421,1.5333,1.5333,1.5333,0,0,1.4979,1.5001,1.5023,1.507,1.509,1.5126,1.5104,1.5143,1.5168,1.5161,1.5209,1.5223,1.5251,1.5304,1.5329,1.5318,1.5409,1.5384,1.5387,1.539,1.5418,1.5426,1.5433,1.5336,1.5335,1.5335,0,0,1.5039,1.506,1.5102,1.5122,1.5153,1.5162,1.5172,1.5201,1.521,1.5258,1.5252,1.5283,1.5341,1.536,1.5378,1.5443,1.5436,1.5453,1.5483,1.5512,1.5519,1.5525,1.5546,1.5554,1.5458,1.5458,1.5458,0,1.5065,1.5118,1.5125,1.5163,1.5184,1.5178,1.5219,1.5238,1.5277,1.5291,1.5278,1.5349,1.5368,1.5425,1.544,1.5455,1.5465,1.545,1.5517,1.5524,1.5529,1.555,1.5558,1.546,1.546,1.546,1.546,0,1.5147,1.5184,1.5214,1.5251,1.5275,1.5315,1.5326,1.5349,1.5349,1.536,1.5407,1.543,1.5465,1.5479,1.548,1.5535,1.5527,1.5516,1.5493,1.5539,1.5559,1.5567,1.5463,1.5462,1.5461,1.5461,0,0,1.5222,1.5261,1.5272,1.5287,1.5319,1.5347,1.5386,1.5421,1.5439,1.5466,1.5498,1.5545,1.5534,1.5554,1.5557,1.5582,1.563,1.5568,1.5568,1.5577,1.569,1.5697,1.5706,1.5626,1.5627,1.5628,1.5687,0,1.5284,1.5354,1.5359,1.5421,1.5454,1.5447,1.5481,1.5503,1.5513,1.5542,1.5553,1.5586,1.557,1.5582,1.5606,1.5619,1.5652,1.5615,1.5654,1.5655,1.5646,1.5717,1.5726,1.578,1.5694,1.5696,1.5697,0,1.5367,1.5395,1.546,1.5484,1.5498,1.5529,1.5559,1.5587,1.5611,1.5617,1.5638,1.5637,1.5675,1.565,1.5702,1.5676,1.5692,1.57,1.5703,1.5706,1.5678,1.5721,1.5797,1.5805,1.5709,1.5708,1.5707,0,1.5413,1.5467,1.5512,1.5526,1.5557,1.5578,1.5591,1.5614,1.5633,1.566,1.5672,1.5703,1.572,1.5743,1.5749,1.5731,1.58,1.5776,1.5804,1.5804,1.5819,1.5817,1.5897,1.5831,1.583,1.583,1.583,0,1.5482,1.5521,1.5533,1.5561,1.5604,1.561,1.5652,1.5664,1.5684,1.5713,1.5709,1.5736,1.5743,1.5771,1.5776,1.5817,1.5825,1.5829,1.583,1.5829,1.5828,1.5839,1.5835,1.5832,1.5832,1.5832,1.5831,0,1.5541,1.5551,1.56,1.5624,1.5631,1.5661,1.5681,1.5707,1.5716,1.5753,1.5761,1.5775,1.5808,1.5816,1.5855,1.5858,1.5906,1.5904,1.5898,1.5897,1.5924,1.5921,1.6013,1.6025,1.5951,1.5952,1.5953,0,1.5584,1.5614,1.5641,1.5659,1.5674,1.5705,1.5724,1.573,1.575,1.5778,1.58,1.5832,1.5858,1.5909,1.5922,1.5951,1.5949,1.5979,1.5953,1.5951,1.5948,1.5945,1.5947,1.5984,1.5985,1.5985,1.5986,0,1.5658,1.566,1.5689,1.5719,1.5742,1.5765,1.5788,1.5804,1.5812,1.5835,1.5867,1.5887,1.5926,1.5957,1.5986,1.5998,1.5993,1.5994,1.6002,1.6001,1.5995,1.5997,1.591,1.5992,1.5991,1.5991,1.599,1.599,1.5709,1.5734,1.5757,1.5788,1.5805,1.5826,1.585,1.5862,1.5889,1.5921,1.5923,1.5958,1.5979,1.6017,1.6031,1.6058,1.6049,1.606,1.6063,1.6066,1.6067,1.5992,1.6063,1.6063,1.6063,1.6063,1.6063,0,1.5781,1.5795,1.5823,1.5854,1.5878,1.5871,1.5895,1.5915,1.5946,1.5967,1.5991,1.6028,1.6057,1.6072,1.6101,1.6119,1.6117,1.6126,1.6124,1.6127,1.6075,1.6064,1.6127,1.6127,1.6127,1.6127,1.6127,1.6127,1.5822,1.5864,1.5869,1.5918,1.5932,1.5966,1.598,1.5998,1.6014,1.6055,1.6079,1.6088,1.6106,1.6135,1.6161,1.6165,1.6175,1.6185,1.6187,1.6138,1.6131,1.6125,1.6115,1.6187,1.6187,1.6237,1.6237,1.6238]}]]